Location: Newark
(25.4800°N, 85.7200°E)
Time: 01:51:20
(UTC+00:00)

Transit 4A - Pass Details

Date: 31 August 2019
Orbit: 866 x 978 km, 66.8° (Epoch: 16 October)

Event Time Altitude Azimuth Distance (km) Brightness Sun altitude
Rises 19:38:22 0° 341° (NNW) 3,577 11.3 -50.7°
Enters shadow 19:38:26 - 341° (NNW) 3,554 11.3 -50.7°
Reaches altitude 10° 19:40:58 10° 345° (NNW) 2,614 - -50.4°
Maximum altitude 19:46:57 61° 65° (ENE) 1,012 - -49.6°
Drops below altitude 10° 19:52:45 10° 145° (SE) 2,533 - -48.8°
Sets 19:55:13 0° 149° (SSE) 3,458 - -48.5°
